logo
Rechercher aéroport 
image banner adimage banner adimage banner ad
image banner ad

36CL - Tri-City Hospital

Situé à Oceanside, United States

ICAO - 36CL, IATA -

Données fournies par Airmate  

Information générale

Coordonnées: N33°11'7" W117°17'28"
Élévation : 260 feet MSL.
Variation magnétique : 13° East
Voir autres Aéroports à California

Données opérationnelles

Special qualification required
Heure actuelle UTC:
Heure actuelle locale:
Météo à : KCRQ - Mc Clellan-Palomar ( 6 km )
METAR: KCRQ 130707Z AUTO 19004KT 10SM FEW005 BKN013 22/21 A2991 RMK AO2 T02170206 $
TAF: KCRQ 011126Z 0112/0212 VRB04KT P6SM OVC020 FM011800 26007KT P6SM FEW025 FM020300 VRB04KT P6SM BKN020
Voir NOTAMs / SUP AIP / TFR affectant cet aéroport [VIEW]
Fréquences de communication: [VIEW]

Pistes:

Coordonnées de l'aéroport

Adresse: Oceanside United States

Vue satellite de 36CL